Location: Dana
(41.8364°N, 106.7042°W)
Time: 17:47:51
(UTC+00:00)

Transit 2A - Pass Details

Date: 18 May 2026
Orbit: 595 x 948 km, 66.7° (Epoch: 9 June)

Event Time Altitude Azimuth Distance (km) Brightness Sun altitude
Rises 23:36:03 0° 255° (WSW) 3,562 10.6 29.1°
Reaches altitude 10° 23:39:24 10° 272° (W) 2,580 10.5 28.4°
Maximum altitude 23:43:37 20° 317° (NW) 1,927 9.0 27.7°
Drops below altitude 10° 23:47:39 10° 3° (N) 2,438 8.7 26.9°
Sets 23:50:43 0° 21° (NNE) 3,304 9.1 26.3°
